GW4835 Weather Reports


time (UTC)temp
C
wind
direction
speed
KPH
gust
KPH
rain 1hr
cm
rain 24hr
cm
rain mn
cm
humidity
%
barometer
mb
20260505041422 19 58 3.2 3.2 0.00 0.00 0.00 65 1009.8
20260505040919 19 63 3.2 4.8 0.00 0.00 0.00 64 1010.1
20260505040416 19 50 1.6 3.2 0.00 0.00 0.00 65 1009.9
20260505035913 19 39 1.6 1.6 0.00 0.00 0.00 66 1009.8
20260505035409 19 20 3.2 3.2 0.00 0.00 0.00 65 1009.9
20260505034906 19 29 1.6 3.2 0.00 0.00 0.00 66 1009.9
20260505034403 19 55 3.2 4.8 0.00 0.00 0.00 65 1009.9
20260505033900 19 41 4.8 4.8 0.00 0.00 0.00 65 1009.7
20260505033356 19 37 1.6 1.6 0.00 0.00 0.00 67 1009.7
20260505032855 19 35 1.6 3.2 0.00 0.00 0.00 65 1010.0
20260505032351 18 37 1.6 3.2 0.00 0.00 0.00 67 1010.0
20260505031848 18 36 1.6 1.6 0.00 0.00 0.00 68 1009.7
20260505031345 18 41 1.6 3.2 0.00 0.00 0.00 67 1009.8
20260505030842 18 36 1.6 3.2 0.00 0.00 0.00 68 1009.8
20260505030338 18 36 0.0 1.6 0.00 0.00 0.00 68 1009.8
20260505025833 18 35 0.0 1.6 0.00 0.00 0.00 69 1009.5
20260505025331 19 35 0.0 1.6 0.00 0.00 0.00 67 1009.5
20260505024829 19 36 0.0 1.6 0.00 0.00 0.00 65 1009.5
20260505024327 19 35 1.6 3.2 0.00 0.00 0.00 65 1009.3
20260505023824 19 25 0.0 1.6 0.00 0.00 0.00 65 1009.3
20260505023321 19 35 1.6 1.6 0.00 0.00 0.00 65 1009.3
20260505022818 20 35 1.6 3.2 0.00 0.00 0.00 64 1009.2
20260505022315 20 34 0.0 1.6 0.00 0.00 0.00 65 1009.0
20260505021812 20 34 0.0 1.6 0.00 0.00 0.00 64 1009.2
20260505021309 20 33 0.0 1.6 0.00 0.00 0.00 64 1009.0
20260505020804 20 35 1.6 1.6 0.00 0.00 0.00 63 1008.8
20260505020300 20 33 1.6 1.6 0.00 0.00 0.00 63 1009.0
20260505015757 20 59 3.2 3.2 0.00 0.00 0.00 61 1008.8
20260505015254 20 337 1.6 3.2 0.00 0.00 0.00 62 1008.9
20260505014752 20 37 1.6 1.6 0.00 0.00 0.00 63 1008.9
20260505014249 20 38 1.6 3.2 0.00 0.00 0.00 61 1008.7
20260505013745 20 49 1.6 3.2 0.00 0.00 0.00 61 1008.7
20260505013243 20 32 1.6 1.6 0.00 0.00 0.00 60 1008.8
20260505012741 20 39 3.2 4.8 0.00 0.00 0.00 59 1008.7
20260505012238 20 77 3.2 4.8 0.00 0.00 0.00 59 1008.7
20260505011733 21 36 1.6 1.6 0.00 0.00 0.00 59 1008.6
20260505011231 20 27 0.0 3.2 0.00 0.00 0.00 59 1008.7
20260505010726 21 42 1.6 4.8 0.00 0.00 0.00 58 1008.4
20260505010223 21 25 0.0 1.6 0.00 0.00 0.00 58 1008.5
20260505005719 21 38 1.6 3.2 0.00 0.00 0.00 56 1008.5
20260505005216 21 32 1.6 4.8 0.00 0.00 0.00 55 1008.4
20260505004713 21 64 1.6 3.2 0.00 0.00 0.00 55 1008.6
20260505004210 21 66 3.2 4.8 0.00 0.00 0.00 53 1008.6
20260505003707 21 42 1.6 3.2 0.00 0.00 0.00 56 1008.6
20260505003205 21 14 1.6 4.8 0.00 0.00 0.00 54 1008.4
20260505002701 22 42 1.6 3.2 0.00 0.00 0.00 55 1008.6
20260505002159 22 26 0.0 3.2 0.00 0.00 0.00 53 1008.6
20260505001655 22 49 3.2 3.2 0.00 0.00 0.00 53 1008.6
20260505001153 22 58 1.6 3.2 0.00 0.00 0.00 52 1008.7
20260505000650 22 46 1.6 3.2 0.00 0.00 0.00 52 1008.5
20260505000148 22 34 1.6 3.2 0.00 0.00 0.00 52 1008.6
20260504235644 22 319 3.2 3.2 0.00 0.00 0.00 53 1008.8
20260504235140 22 51 1.6 3.2 0.00 0.00 0.00 52 1008.9
20260504234638 23 37 1.6 3.2 0.00 0.00 0.00 52 1009.0
20260504234135 23 79 1.6 4.8 0.00 0.00 0.00 50 1009.1
20260504233631 23 41 1.6 14.5 0.00 0.00 0.00 48 1009.0
20260504233127 23 147 6.4 6.4 0.00 0.00 0.00 47 1008.9
20260504232625 23 159 4.8 9.7 0.00 0.00 0.00 48 1008.8
20260504232121 23 50 1.6 4.8 0.00 0.00 0.00 53 1008.9
20260504231618 23 55 4.8 6.4 0.00 0.00 0.00 51 1008.9
20260504231114 23 82 3.2 4.8 0.00 0.00 0.00 56 1008.9
20260504230610 23 25 1.6 3.2 0.00 0.00 0.00 57 1009.0
20260504230109 22 142 4.8 4.8 0.00 0.00 0.00 56 1008.9
20260504225607 22 45 1.6 3.2 0.00 0.00 0.00 60 1009.2
20260504225103 22 33 0.0 1.6 0.00 0.00 0.00 59 1009.1
20260504224600 22 32 1.6 1.6 0.00 0.00 0.00 57 1009.2
20260504224057 22 28 0.0 1.6 0.00 0.00 0.00 56 1009.3
20260504223554 22 41 1.6 3.2 0.00 0.00 0.00 55 1009.3
20260504223050 23 53 1.6 3.2 0.00 0.00 0.00 55 1009.4
20260504222547 23 39 1.6 4.8 0.00 0.00 0.00 56 1009.7
20260504222044 23 31 3.2 3.2 0.00 0.00 0.00 54 1009.4
20260504221542 23 16 0.0 1.6 0.00 0.00 0.00 54 1009.3
20260504221038 23 34 1.6 3.2 0.00 0.00 0.00 53 1009.4
20260504220535 23 16 0.0 1.6 0.00 0.00 0.00 53 1009.3
20260504220032 23 74 3.2 3.2 0.00 0.00 0.00 53 1009.4
20260504215528 23 42 1.6 3.2 0.00 0.00 0.00 53 1009.8
20260504215026 23 32 1.6 4.8 0.00 0.00 0.00 53 1009.9
20260504214521 22 56 1.6 3.2 0.00 0.00 0.00 55 1009.9
20260504214018 22 67 3.2 4.8 0.00 0.00 0.00 54 1010.1
20260504213514 23 34 1.6 3.2 0.00 0.00 0.00 55 1010.0
20260504213012 23 54 1.6 4.8 0.00 0.00 0.00 54 1010.1
20260504212507 23 27 1.6 3.2 0.00 0.00 0.00 54 1010.3
20260504212005 23 48 3.2 4.8 0.00 0.00 0.00 53 1010.1
20260504211501 23 156 3.2 4.8 0.00 0.00 0.00 53 1010.1
20260504210959 23 37 4.8 9.7 0.00 0.00 0.00 53 1010.6
20260504210456 23 87 1.6 3.2 0.00 0.00 0.00 54 1010.6
20260504205952 22 214 6.4 11.3 0.00 0.00 0.00 53 1010.5
20260504205450 22 211 4.8 9.7 0.00 0.00 0.00 54 1010.5
20260504204948 22 54 4.8 9.7 0.00 0.00 0.00 53 1010.7
20260504204446 22 41 3.2 3.2 0.00 0.00 0.00 55 1010.8
20260504203945 22 107 3.2 11.3 0.00 0.00 0.00 53 1010.8
20260504203442 22 119 4.8 6.4 0.00 0.00 0.00 54 1010.8
20260504202938 22 13 3.2 6.4 0.00 0.00 0.00 56 1010.9
20260504202435 23 8 1.6 4.8 0.00 0.00 0.00 56 1010.9
20260504201932 23 17 1.6 1.6 0.00 0.00 0.00 56 1010.8
20260504201429 23 9 4.8 4.8 0.00 0.00 0.00 55 1010.7
20260504200927 23 160 4.8 9.7 0.00 0.00 0.00 56 1010.8
20260504200423 22 113 4.8 4.8 0.00 0.00 0.00 58 1010.8
20260504195920 22 41 1.6 4.8 0.00 0.00 0.00 60 1011.0
20260504195416 21 26 1.6 1.6 0.00 0.00 0.00 62 1011.1
20260504194912 21 39 6.4 11.3 0.00 0.00 0.00 60 1011.4
20260504194408 21 20 1.6 3.2 0.00 0.00 0.00 61 1011.6
20260504193904 21 28 3.2 3.2 0.00 0.00 0.00 63 1011.6
20260504193402 20 14 0.0 4.8 0.00 0.00 0.00 64 1011.3
20260504192900 20 131 3.2 4.8 0.00 0.00 0.00 63 1011.3
20260504192357 20 155 6.4 6.4 0.00 0.00 0.00 63 1011.9
20260504191856 20 28 1.6 1.6 0.00 0.00 0.00 66 1012.2
20260504191354 20 52 1.6 3.2 0.00 0.00 0.00 64 1011.8
20260504190849 20 12 0.0 3.2 0.00 0.00 0.00 69 1012.2
20260504190345 20 12 0.0 4.8 0.00 0.00 0.00 66 1012.3
20260504185842 20 18 1.6 6.4 0.00 0.00 0.00 66 1012.7
20260504185339 20 354 1.6 12.9 0.00 0.00 0.00 64 1012.3
20260504184835 20 35 3.2 6.4 0.00 0.00 0.00 62 1012.5
20260504184331 20 53 3.2 11.3 0.00 0.00 0.00 64 1012.3
20260504183826 20 25 3.2 4.8 0.00 0.00 0.00 61 1012.1
20260504183324 20 36 3.2 16.1 0.00 0.00 0.00 63 1012.1
20260504182822 20 92 4.8 9.7 0.00 0.00 0.00 60 1011.8
20260504182319 20 183 4.8 11.3 0.00 0.00 0.00 62 1011.8
20260504181816 21 99 1.6 3.2 0.00 0.00 0.00 62 1011.5
20260504181314 21 20 1.6 4.8 0.00 0.00 0.00 62 1011.6
20260504180812 21 49 4.8 11.3 0.00 0.00 0.00 60 1011.2
20260504180310 21 59 3.2 9.7 0.00 0.00 0.00 61 1011.3
20260504175808 21 117 4.8 4.8 0.00 0.00 0.00 64 1011.2
20260504175305 20 110 4.8 4.8 0.00 0.00 0.00 63 1011.3
20260504174803 20 149 8.0 9.7 0.00 0.00 0.00 63 1011.3
20260504174300 20 45 3.2 4.8 0.00 0.00 0.00 63 1011.6
20260504173756 20 79 1.6 3.2 0.00 0.00 0.00 63 1011.5
20260504173253 20 36 0.0 4.8 0.00 0.00 0.00 64 1011.8
20260504172750 20 56 1.6 3.2 0.00 0.00 0.00 62 1011.6
20260504172247 20 12 1.6 3.2 0.00 0.00 0.00 64 1011.2
20260504171743 20 36 1.6 3.2 0.00 0.00 0.00 65 1011.4
20260504171240 20 131 4.8 4.8 0.00 0.00 0.00 63 1011.4
20260504170737 20 30 1.6 4.8 0.00 0.00 0.00 65 1011.4
20260504170234 19 27 1.6 3.2 0.00 0.00 0.00 65 1011.9
20260504160153 18 344 4.8 6.4 0.00 0.00 0.00 64 1012.1
20260504151120 16 41 3.2 4.8 0.00 0.00 0.00 67 1012.7
20260504150618 16 27 1.6 3.2 0.00 0.00 0.00 69 1012.3
20260504150115 16 23 3.2 4.8 0.00 0.00 0.00 67 1012.2
20260504141043 16 25 1.6 6.4 0.00 0.00 0.00 68 1012.7
20260504140540 16 9 1.6 1.6 0.00 0.00 0.00 69 1012.7
20260504130504 13 67 4.8 4.8 0.00 0.00 0.00 72 1013.1
20260504110351 11 31 1.6 3.2 0.00 0.00 0.00 73 1012.8
20260504100309 8 25 0.0 1.6 0.00 0.00 0.00 79 1013.1
20260504081702 11 16 1.6 3.2 0.00 0.00 0.00 66 1013.7
20260504081158 11 70 3.2 3.2 0.00 0.00 0.00 67 1013.6
20260504080655 11 84 3.2 6.4 0.00 0.00 0.00 65 1013.7
20260504080152 11 68 1.6 3.2 0.00 0.00 0.00 66 1013.7
20260504070119 11 64 3.2 4.8 0.00 0.00 0.00 65 1014.3
20260504050508 10 19 0.0 1.6 0.00 0.00 0.00 71 1015.5
20260504050005 10 34 0.0 1.6 0.00 0.00 0.00 71 1015.5
20260504045500 10 34 0.0 1.6 0.00 0.00 0.00 70 1015.8
20260504044957 10 34 0.0 1.6 0.00 0.00 0.00 70 1015.8
20260504044454 10 34 1.6 1.6 0.00 0.00 0.00 70 1015.7
20260504043952 11 34 0.0 0.0 0.00 0.00 0.00 69 1015.7
20260504043449 11 34 0.0 0.0 0.00 0.00 0.00 68 1015.7
20260504042946 11 34 1.6 1.6 0.00 0.00 0.00 67 1015.8
20260504042442 11 34 0.0 1.6 0.00 0.00 0.00 68 1015.9
20260504041939 11 27 0.0 1.6 0.00 0.00 0.00 66 1015.7